[[[{"header":{"parameterUnit":"kt","parameterCategory":2,"dx":1,"dy":1,"la1":30.253999710083008,"la2":30.299108505249023,"lo1":-89.0895004272461,"lo2":-89.04439544677734,"nx":28,"ny":28,"refTime":"2022-10-17T21:00:00:Z","depth":0,"parameterNumber":1,"parameterNumberName":"U-component_of_WINDS"},"data":[-0.7784,-0.7905,-0.7931,-0.8081,-0.813,-0.8238,-0.8285,-0.8348,-0.8405,-0.8537,-0.8618,-0.8657,-0.8726,-0.883,-0.8919,-0.8935,-0.8973,-0.8995,-0.9011,-0.8883,-0.8868,-0.8853,-0.8826,-0.9002,-0.9002,-0.914,-0.9141,-0.9142,-0.7684,-0.7733,-0.782,-0.7922,-0.7997,-0.799,-0.8071,-0.8135,-0.8232,-0.8304,-0.8386,-0.8505,-0.8603,-0.8666,-0.8765,-0.8824,-0.8828,-0.8849,-0.8847,-0.8858,-0.8722,-0.8693,-0.8844,-0.8844,-0.8844,-0.8844,-0.8844,-0.8844,-0.7509,-0.7581,-0.7658,-0.7754,-0.7812,-0.7881,-0.7955,-0.8002,-0.8089,-0.8195,-0.8211,-0.8322,-0.84,-0.8535,-0.8587,-0.8675,-0.8658,-0.869,-0.8699,-0.8708,-0.8713,-0.8512,-0.8693,-0.8693,-0.8693,-0.8692,-0.8692,0,-0.739,-0.7407,-0.7493,-0.7587,-0.7658,-0.7734,-0.7809,-0.7855,-0.7903,-0.7973,-0.8077,-0.8142,-0.827,-0.8373,-0.8473,-0.8522,-0.8526,-0.8529,-0.8552,-0.8548,-0.8529,-0.8542,-0.8321,-0.8525,-0.8524,-0.8523,-0.8522,-0.8521,-0.7218,-0.7299,-0.7393,-0.745,-0.7498,-0.759,-0.7651,-0.7687,-0.775,-0.7848,-0.7911,-0.8013,-0.8097,-0.8261,-0.8319,-0.8416,-0.842,-0.8495,-0.8435,-0.8425,-0.8424,-0.842,-0.8429,-0.8507,-0.8509,-0.8511,-0.8512,0,-0.7118,-0.7162,-0.7297,-0.7384,-0.7408,-0.7491,-0.7567,-0.7641,-0.768,-0.7788,-0.7816,-0.7878,-0.7981,-0.8027,-0.8155,-0.8176,-0.8316,-0.8316,-0.8288,-0.8292,-0.8365,-0.8358,-0.8591,-0.8624,-0.844,-0.8441,-0.8443,0,-0.699,-0.7096,-0.7155,-0.7232,-0.7349,-0.7384,-0.75,-0.7546,-0.7615,-0.7701,-0.7711,-0.7792,-0.7839,-0.7926,-0.7958,-0.808,-0.8104,-0.8128,-0.8136,-0.8129,-0.8127,-0.8167,-0.816,-0.8148,-0.8147,-0.8146,-0.8145,0,-0.6832,-0.6988,-0.7111,-0.7155,-0.726,-0.7317,-0.7364,-0.7443,-0.7503,-0.7588,-0.7628,-0.7725,-0.778,-0.7855,-0.7895,-0.7853,-0.8045,-0.7996,-0.8071,-0.807,-0.8115,-0.8112,-0.8303,-0.8143,-0.8143,-0.8143,-0.8142,0,-0.6738,-0.6822,-0.6994,-0.7082,-0.7122,-0.7203,-0.7301,-0.7382,-0.7464,-0.749,-0.7558,-0.7572,-0.7682,-0.763,-0.7782,-0.7716,-0.7768,-0.7802,-0.7808,-0.7825,-0.7766,-0.787,-0.8045,-0.8067,-0.7833,-0.7831,-0.7829,0,-0.6545,-0.6731,-0.6763,-0.6926,-0.7019,-0.7025,-0.7117,-0.719,-0.7231,-0.7316,-0.7363,-0.7461,-0.7432,-0.747,-0.7538,-0.7591,-0.7677,-0.7581,-0.7707,-0.7711,-0.7687,-0.7847,-0.7863,-0.8001,-0.7796,-0.78,-0.7802,0,-0.6403,-0.6531,-0.6558,-0.6609,-0.6711,-0.679,-0.6894,-0.6999,-0.7054,-0.7136,-0.7226,-0.7365,-0.7349,-0.7412,-0.7435,-0.7505,-0.762,-0.748,-0.7482,-0.7505,-0.7784,-0.7798,-0.7821,-0.762,-0.7624,-0.7628,-0.7776,0,-0.6252,-0.6352,-0.6426,-0.654,-0.6608,-0.6713,-0.6763,-0.6828,-0.6842,-0.6885,-0.7018,-0.7094,-0.7203,-0.7242,-0.7258,-0.7402,-0.7386,-0.7369,-0.7326,-0.7429,-0.748,-0.75,-0.7245,-0.7244,-0.7243,-0.7243,0,0,-0.6059,-0.6203,-0.6237,-0.634,-0.64,-0.6407,-0.6515,-0.6575,-0.6695,-0.6737,-0.6711,-0.692,-0.6983,-0.7141,-0.7177,-0.7221,-0.7252,-0.7215,-0.7379,-0.7394,-0.7408,-0.7461,-0.7481,-0.7241,-0.7241,-0.724,-0.724,0,-0.6016,-0.6076,-0.6182,-0.6245,-0.6338,-0.6378,-0.6403,-0.6499,-0.6532,-0.6663,-0.667,-0.6757,-0.6924,-0.699,-0.7046,-0.7196,-0.7199,-0.7225,-0.7289,-0.7368,-0.7384,-0.7399,-0.7454,-0.7473,-0.7238,-0.7238,-0.7238,0,-0.5887,-0.5955,-0.6012,-0.6147,-0.621,-0.6306,-0.627,-0.6374,-0.6447,-0.6454,-0.6585,-0.6635,-0.6728,-0.687,-0.6936,-0.6916,-0.7147,-0.7084,-0.709,-0.71,-0.718,-0.7199,-0.7216,-0.6992,-0.6991,-0.699,0,0,-0.5842,-0.5935,-0.6023,-0.6142,-0.6181,-0.6242,-0.6299,-0.6321,-0.6404,-0.6437,-0.6502,-0.6584,-0.6681,-0.6745,-0.6839,-0.6987,-0.7011,-0.7051,-0.7063,-0.7072,-0.7087,-0.7169,-0.7188,-0.6986,-0.6986,-0.6985,0,0,-0.5823,-0.5928,-0.5929,-0.6073,-0.615,-0.6247,-0.6319,-0.6322,-0.6413,-0.6407,-0.6451,-0.6475,-0.6609,-0.6659,-0.6597,-0.6825,-0.678,-0.6796,-0.6788,-0.6804,-0.6816,-0.6802,-0.6576,0,0,0,0,0,-0.5805,-0.5915,-0.5914,-0.5946,-0.612,-0.6246,-0.6269,-0.6307,-0.6274,-0.6329,-0.6384,-0.6383,-0.6634,-0.6581,-0.6613,-0.6683,-0.6933,-0.6942,-0.6951,-0.6977,-0.6992,-0.7005,0,0,0,0,0,0,-0.5818,-0.5857,-0.5911,-0.6011,-0.6051,-0.6243,-0.6195,-0.6208,-0.6269,-0.6266,-0.6372,-0.6386,-0.6423,-0.6567,-0.6596,-0.6661,-0.6566,-0.6937,-0.6945,-0.6952,-0.6982,-0.6995,-0.7006,0,0,0,0,0,-0.5829,-0.586,-0.6128,-0.601,-0.6044,-0.6121,-0.6191,-0.6202,-0.625,-0.6336,-0.635,-0.6273,-0.6423,-0.645,-0.6585,-0.6647,-0.6547,-0.6557,-0.6942,-0.6948,-0.6954,-0.6988,0,0,0,0,0,0,-0.5836,-0.5872,-0.6136,-0.6148,-0.5972,-0.6111,-0.6134,-0.6196,-0.6316,-0.6331,-0.6238,-0.6235,-0.6425,-0.6446,-0.6466,-0.664,-0.6531,-0.6542,-0.6548,-0.6947,-0.6951,-0.6956,0,0,0,0,0,0,-0.5855,-0.5882,-0.6142,-0.6092,-0.6098,-0.6101,-0.6122,-0.6242,-0.6317,-0.6212,-0.6213,-0.6235,-0.6395,-0.6443,-0.6459,-0.6646,-0.6519,-0.6529,-0.6536,-0.6541,-0.6951,-0.6954,0,0,0,0,0,0,-0.5867,-0.589,-0.6089,-0.6094,-0.61,-0.6236,-0.6209,-0.6386,-0.6272,-0.6206,-0.6263,-0.6259,-0.6393,-0.641,-0.6454,-0.6634,-0.6643,-0.6519,-0.6526,-0.6531,-0.6534,0,0,0,0,0,0,0,-0.5877,-0.5714,-0.6065,-0.6096,-0.6101,-0.6258,-0.6261,-0.6265,-0.6271,-0.6267,-0.6264,-0.626,-0.6461,-0.6472,-0.6483,-0.6625,0,0,-0.6518,-0.6523,0,0,0,0,0,0,0,0,-0.5705,-0.5712,-0.6065,-0.6068,-0.607,-0.6259,-0.6261,-0.6264,-0.627,-0.6267,-0.6264,-0.6262,-0.6464,-0.6473,-0.6482,0,0,0,0,0,0,0,0,0,0,0,0,0,0,0,-0.6066,-0.6068,0,-0.6259,-0.6261,-0.6263,-0.627,-0.6267,-0.6265,-0.6263,-0.6466,-0.6474,-0.6481,0,0,0,0,0,0,0,0,0,0,0,0,0,0,0,0,0,0,0,0,0,0,0,0,0,0,0,0,0,0,0,0,0,0,0,0,0,0,0,0,0,0,0,0,0,0,0,0,0,0,0,0,0,0,0,0,0,0,0,0,0,0,0,0,0,0,0,0,0]}],[{"header":{"parameterUnit":"kt","parameterCategory":2,"dx":1,"dy":1,"la1":30.253999710083008,"la2":30.299108505249023,"lo1":-89.0895004272461,"lo2":-89.04439544677734,"nx":28,"ny":28,"refTime":"2022-10-17T21:00:00:Z","depth":0,"parameterNumber":2,"parameterNumberName":"V-component_of_WINDS"},"data":[-16.553,-16.5851,-16.5867,-16.6238,-16.6313,-16.6568,-16.6663,-16.6786,-16.6886,-16.7187,-16.7362,-16.7405,-16.7506,-16.7713,-16.7899,-16.7912,-16.799,-16.8094,-16.8092,-16.762,-16.7555,-16.7493,-16.742,-16.8111,-16.8112,-16.8579,-16.8583,-16.8586,-16.5181,-16.5261,-16.5463,-16.5667,-16.5839,-16.5748,-16.59,-16.6049,-16.6277,-16.6403,-16.6576,-16.684,-16.7048,-16.7115,-16.7316,-16.7461,-16.7427,-16.7514,-16.7503,-16.752,-16.7016,-16.6938,-16.7538,-16.7538,-16.7538,-16.7538,-16.7538,-16.7537,-16.455,-16.4743,-16.4875,-16.5094,-16.52,-16.5336,-16.5519,-16.557,-16.5764,-16.598,-16.5955,-16.6212,-16.6336,-16.6583,-16.6667,-16.6864,-16.6769,-16.6866,-16.6891,-16.6915,-16.6942,-16.6266,-16.6898,-16.6896,-16.6895,-16.6894,-16.6892,0,-16.4092,-16.4092,-16.4286,-16.4485,-16.4644,-16.4799,-16.4941,-16.5055,-16.5052,-16.5212,-16.5443,-16.5577,-16.5841,-16.6056,-16.6246,-16.6313,-16.623,-16.6222,-16.629,-16.6306,-16.6297,-16.6305,-16.5482,-16.6204,-16.6198,-16.6194,-16.619,-16.6188,-16.3456,-16.3679,-16.3824,-16.3958,-16.404,-16.4256,-16.4387,-16.4368,-16.4507,-16.4676,-16.4844,-16.5061,-16.5234,-16.5597,-16.5647,-16.5842,-16.5803,-16.6078,-16.5832,-16.5838,-16.5807,-16.5794,-16.5815,-16.6126,-16.6134,-16.614,-16.6145,0,-16.3096,-16.3118,-16.3467,-16.3587,-16.3623,-16.3857,-16.3956,-16.4145,-16.4172,-16.4435,-16.4494,-16.4535,-16.476,-16.4766,-16.5022,-16.5018,-16.5395,-16.5352,-16.5352,-16.5343,-16.5589,-16.5566,-16.6387,-16.6493,-16.5776,-16.5783,-16.5789,0,-16.2562,-16.2854,-16.2869,-16.307,-16.3393,-16.3367,-16.3686,-16.374,-16.3849,-16.4056,-16.3964,-16.4159,-16.4136,-16.4331,-16.4325,-16.4634,-16.4682,-16.4696,-16.4691,-16.4705,-16.4704,-16.4776,-16.4742,-16.4671,-16.4667,-16.4663,-16.466,0,-16.1996,-16.2346,-16.2674,-16.2756,-16.2912,-16.3065,-16.3136,-16.3257,-16.3385,-16.355,-16.3632,-16.3825,-16.3931,-16.408,-16.4071,-16.3904,-16.4449,-16.4217,-16.4463,-16.4464,-16.4584,-16.4576,-16.5303,-16.4655,-16.4653,-16.4652,-16.4651,0,-16.1566,-16.174,-16.2211,-16.2338,-16.243,-16.2645,-16.2836,-16.3021,-16.3155,-16.3166,-16.3295,-16.3234,-16.3505,-16.3275,-16.3647,-16.3432,-16.354,-16.3579,-16.3597,-16.3621,-16.3363,-16.3771,-16.4463,-16.4535,-16.3643,-16.3635,-16.3627,0,-16.0913,-16.1395,-16.1376,-16.1823,-16.2046,-16.1929,-16.2166,-16.2288,-16.2323,-16.2513,-16.2549,-16.2766,-16.2596,-16.2664,-16.2848,-16.2893,-16.3172,-16.2855,-16.3125,-16.3135,-16.3094,-16.3731,-16.3832,-16.4311,-16.352,-16.3531,-16.3539,0,-16.0409,-16.0598,-16.068,-16.0772,-16.0932,-16.1118,-16.139,-16.1601,-16.1729,-16.1876,-16.2102,-16.2407,-16.229,-16.2405,-16.2374,-16.2565,-16.2982,-16.2414,-16.2416,-16.2516,-16.3466,-16.3561,-16.3642,-16.2918,-16.2931,-16.2942,-16.3454,0,-15.9755,-15.9998,-16.0219,-16.0428,-16.0572,-16.0852,-16.0862,-16.1012,-16.0969,-16.0999,-16.1331,-16.1431,-16.1643,-16.1735,-16.1695,-16.2131,-16.2059,-16.1932,-16.1707,-16.2125,-16.2294,-16.2363,-16.1455,-16.1448,-16.1443,-16.1438,0,0,-15.9123,-15.9472,-15.9443,-15.9708,-15.9828,-15.9702,-16.0001,-16.0102,-16.031,-16.0394,-16.027,-16.0715,-16.0802,-16.1203,-16.1334,-16.142,-16.1497,-16.1351,-16.1926,-16.1981,-16.2031,-16.2212,-16.2283,-16.1429,-16.1426,-16.1425,-16.1423,0,-15.8887,-15.8984,-15.9281,-15.9386,-15.954,-15.9557,-15.9629,-15.9758,-15.979,-16.0117,-16.0005,-16.0204,-16.0562,-16.0668,-16.0768,-16.1303,-16.1207,-16.1367,-16.1653,-16.187,-16.1932,-16.1987,-16.2177,-16.2245,-16.1409,-16.141,-16.1411,0,-15.8391,-15.8488,-15.8633,-15.8902,-15.9001,-15.9233,-15.9,-15.9255,-15.9426,-15.9271,-15.9596,-15.9653,-15.9795,-16.0174,-16.0344,-16.0235,-16.0942,-16.072,-16.0755,-16.0774,-16.0984,-16.1058,-16.1124,-16.0253,-16.0249,-16.0245,0,0,-15.8185,-15.8411,-15.8507,-15.8852,-15.8922,-15.8953,-15.9076,-15.9047,-15.918,-15.9234,-15.9305,-15.9436,-15.9641,-15.9778,-15.9972,-16.0387,-16.0413,-16.0577,-16.0632,-16.0676,-16.0719,-16.0942,-16.1015,-16.023,-16.023,-16.0229,0,0,-15.8085,-15.8212,-15.8146,-15.8547,-15.868,-15.8795,-15.9004,-15.8925,-15.9102,-15.907,-15.9029,-15.9062,-15.9416,-15.9476,-15.9271,-15.9891,-15.9669,-15.9718,-15.984,-15.9909,-15.9963,-15.9941,-15.9044,0,0,0,0,0,-15.7848,-15.8196,-15.8135,-15.8204,-15.8542,-15.8829,-15.8872,-15.8848,-15.8691,-15.8857,-15.8903,-15.8792,-15.9356,-15.9174,-15.9241,-15.947,-16.0033,-16.0068,-16.0101,-16.0356,-16.0428,-16.0488,0,0,0,0,0,0,-15.7875,-15.7959,-15.8126,-15.8257,-15.8332,-15.8816,-15.8546,-15.8549,-15.8673,-15.8648,-15.8787,-15.8796,-15.8779,-15.9138,-15.9199,-15.9417,-15.9023,-16.0047,-16.0076,-16.0103,-16.038,-16.0439,-16.049,0,0,0,0,0,-15.7896,-15.7964,-15.8513,-15.8252,-15.8317,-15.8369,-15.8532,-15.8533,-15.8628,-15.8701,-15.8707,-15.8599,-15.8786,-15.8835,-15.9174,-15.939,-15.8981,-15.9004,-16.0066,-16.0089,-16.011,-16.0409,0,0,0,0,0,0,-15.7912,-15.7965,-15.8526,-15.8545,-15.8119,-15.8341,-15.8376,-15.852,-15.8672,-15.8683,-15.8509,-15.8487,-15.8796,-15.8832,-15.887,-15.9382,-15.8947,-15.897,-15.8984,-16.0084,-16.0102,-16.0118,0,0,0,0,0,0,-15.7928,-15.7982,-15.8535,-15.8369,-15.8369,-15.8316,-15.8347,-15.863,-15.8676,-15.8472,-15.8458,-15.8498,-15.8736,-15.8831,-15.8861,-15.9303,-15.892,-15.8943,-15.8958,-15.8968,-16.0099,-16.0113,0,0,0,0,0,0,-15.795,-15.7997,-15.8364,-15.8364,-15.8363,-15.8574,-15.8565,-15.8911,-15.8537,-15.8467,-15.8503,-15.8487,-15.8739,-15.8768,-15.8855,-15.9286,-15.9299,-15.8921,-15.8936,-15.8947,-15.8954,0,0,0,0,0,0,0,-15.7968,-15.7666,-15.8414,-15.836,-15.8358,-15.872,-15.8725,-15.873,-15.8534,-15.852,-15.8506,-15.8493,-15.8794,-15.8818,-15.8843,-15.9272,0,0,-15.8919,-15.893,0,0,0,0,0,0,0,0,-15.7645,-15.7661,-15.8414,-15.8418,-15.8422,-15.8721,-15.8725,-15.8729,-15.8532,-15.852,-15.8509,-15.8499,-15.8801,-15.882,-15.884,0,0,0,0,0,0,0,0,0,0,0,0,0,0,0,-15.8415,-15.8418,0,-15.8721,-15.8725,-15.8728,-15.853,-15.8521,-15.8512,-15.8503,-15.8806,-15.8822,-15.8839,0,0,0,0,0,0,0,0,0,0,0,0,0,0,0,0,0,0,0,0,0,0,0,0,0,0,0,0,0,0,0,0,0,0,0,0,0,0,0,0,0,0,0,0,0,0,0,0,0,0,0,0,0,0,0,0,0,0,0,0,0,0,0,0,0,0,0,0,0]}]]]